Regional Weather Roundup
Issued by NWS

Home | Current Version | Previous Version | Text Only | Print | Product List | Glossary On
Versions: 1 2 3 4 5 6 7 8 9 10 11 12 13 14 15 16 17 18 19 20 21 22 23 24 25 26 27 28 29 30 31 32 33 34 35 36 37 38 39 40 41 42 43 44 45 46 47 48 49 50
000
ASUS44 KMEG 210210
RWRTN
TENNESSEE HOURLY STATE WEATHER ROUNDUP
NATIONAL WEATHER SERVICE MEMPHIS TN
900 PM CDT MON OCT 20 2014

TNZ002-004-019-021-049-052-054-088>092-210300-
WEST TENNESSEE

CITY           SKY/WX    TMP DP  RH WIND       PRES   REMARKS
MEMPHIS INTL   CLEAR     60  52  74 CALM      30.03R
NWS MEMPHIS      N/A     57 N/A N/A MISG        N/A
JACKSON        CLEAR     57  51  80 SW5       30.02R
DYERSBURG      CLEAR     61  45  55 SW3       30.01S
UNION CITY     MOCLDY    57  54  88 CALM      29.99R
PARIS          CLEAR     54  48  82 CALM      30.00S
HUNTINGDON     PTCLDY    56  50  80 SW3       30.01R
LEXINGTON      CLEAR     52  52 100 CALM      30.01R
SAVANNAH       CLEAR     52  52 100 CALM      30.03S
$$

TNZ008-025-027-028-033-062-065-066-210300-
NORTH MIDDLE TENNESSEE

CITY           SKY/WX    TMP DP  RH WIND       PRES   REMARKS
NASHVILLE      CLEAR     55  49  80 CALM      30.01R
CLARKSVILLE    CLEAR     57  52  83 S3        29.99R
SMYRNA         CLEAR     50  48  92 CALM      30.03R
COOKEVILLE     CLEAR     46  45  93 CALM      30.02R
CROSSVILLE     CLEAR     53  46  77 SW3       30.03S
$$

TNZ061-075-076-078-094-096-097-210300-
SOUTH MIDDLE TENNESSEE

CITY           SKY/WX    TMP DP  RH WIND       PRES   REMARKS
FAYETTEVILLE   CLEAR     54  46  76 W21G54    30.03S
TULLAHOMA      CLEAR     48  46  93 CALM      30.04R
WINCHESTER     CLEAR     52  50  93 CALM      30.04S
MCMINNVILLE    CLEAR     50  50 100 CALM      30.03R
COLUMBIA       CLEAR    N/A N/A N/A CALM      30.01R
SHELBYVILLE    CLEAR     50  48  93 CALM      30.04R
$$

TNZ017-018-042-046-047-210300-
NORTHEAST TENNESSEE

CITY           SKY/WX    TMP DP  RH WIND       PRES   REMARKS
TRI CITIES     MOCLDY    55  49  80 CALM      30.01R
ELIZABETHTON   CLOUDY    54  48  82 CALM      30.02R
$$

TNZ012-013-036-069-073-074-210300-
CENTRAL EAST TENNESSEE

CITY           SKY/WX    TMP DP  RH WIND       PRES   REMARKS
KNOXVILLE      PTCLDY    55  50  83 SW7       30.01R
OAK RIDGE      CLEAR     54  51  90 CALM      30.03R
GATLINBURG     CLOUDY    54  50  87 CALM      30.01R
MORRISTOWN     PTCLDY    57  52  82 CALM      30.01R
$$

TNZ083-085-099-210300-
SOUTHEAST TENNESSEE

CITY           SKY/WX    TMP DP  RH WIND       PRES   REMARKS
CHATTANOOGA    PTCLDY    56  52  86 CALM      30.03R
$$

SKY/WX REPORTED AS FAIR MEANS FEW OR NO CLOUDS BELOW
12 THOUSAND FEET.



USA.gov is the U.S. government's official web portal to all federal, state and local government web resources and services.